Regional Weather Roundup
Issued by NWS Green Bay, WI

Home | Current Version | Previous Version | Graphics & Text | Print | Product List | Glossary Off
Versions: 1 2 3 4 5 6 7 8 9 10 11 12 13 14 15 16 17 18 19 20 21 22 23 24 25 26 27 28 29 30 31 32 33 34 35 36 37 38 39 40 41 42 43 44 45 46 47 48 49 50

000
ASUS43 KGRB 291711
RWRGRB

NORTH-CENTRAL AND NORTHEAST WISCONSIN REGIONAL WEATHER ROUNDUP
NATIONAL WEATHER SERVICE GREEN BAY WI
1200 PM CDT WED JUL 29 2015

WIZ005-009-010>012-018-019-291800-
NORTH CENTRAL WISCONSIN

CITY           SKY/WX    TMP DP  RH WIND       PRES   REMARKS
IRONWOOD       CLOUDY    70  52  52 W22G30    29.76R
MANITOWISH WTR MOSUNNY   72  54  52 W18G32    29.82S
ARBOR VITAE    MOSUNNY   74  54  48 W20G30    29.82S
EAGLE RIVER    MOSUNNY   75  49  39 W23G31    29.81F
LAND O LAKES   MOSUNNY   73  50  43 W16G24    29.81S
RHINELANDER    SUNNY     78  51  38 W21G36    29.84F
PHILLIPS       SUNNY     73  53  49 SW18G30   29.83F
ANTIGO         SUNNY     75  52  43 W15G31    29.87F
TOMAHAWK       SUNNY     74  51  44 W17G29    29.86S
MERRILL        NOT AVBL
$$

WIZ013-073-291800-
NORTHEAST WISCONSIN

CITY           SKY/WX    TMP DP  RH WIND       PRES   REMARKS
IRON MOUNTAIN  SUNNY     80  50  34 SW20G31   29.79S
MARINETTE      SUNNY     81  54  39 W10G20    29.81F
OCONTO         SUNNY     81  52  36 W20G30    29.84S
$$

WIZ017-030-035>037-045-291800-
CENTRAL WISCONSIN

CITY           SKY/WX    TMP DP  RH WIND       PRES   REMARKS
MEDFORD        SUNNY     74  52  45 W18G38    29.88F
WAUSAU         SUNNY     78  50  37 W24G35    29.87F
MOSINEE        SUNNY     75  52  43 SW21G30   29.90F
MARSHFIELD     SUNNY     78  47  33 W24G35    29.91F
WISC RAPIDS    SUNNY     79  48  33 W21G31    29.94S
STEVENS POINT  SUNNY     76  50  39 W21G31    29.91F
WAUPACA        SUNNY     82  47  29 W16G24    29.91S
SHAWANO        SUNNY     81  49  33 W15G28    29.87S
CLINTONVILLE     N/A     81  45  28 W20       29.88S
$$

WIZ038-039-048-051-291800-
FOX VALLEY

CITY           SKY/WX    TMP DP  RH WIND       PRES   REMARKS
NWS GREEN BAY  SUNNY     81  53  37 W23G32    29.87F
APPLETON       MOSUNNY   81  48  32 W20G26    29.91F
OSHKOSH        SUNNY     81  51  35 W15G25    29.91F
FOND DU LAC    SUNNY     82  50  32 W14G22    29.93F
$$

WIZ022-050-052-291800-
EAST CENTRAL WISCONSIN

CITY           SKY/WX    TMP DP  RH WIND       PRES   REMARKS
STURGEON BAY   SUNNY     81  52  36 W20G29    29.86F
MANITOWOC      MOSUNNY   82  49  31 MISG      29.89F
SHEBOYGAN      MOSUNNY   82  52  35 W16G22    29.92F
$$

LMZ563-521-522-541>543-291800-
LAKESHORE

STATION/POSITION TIME  TEMP    WIND        PRES    VSBY  WAVE
                       AIR SEA DIR/SP/G                  HT/PER
                 (UTC) (F)     (DEG/KT/KT) (MB)    (MI)  (FT/S)
SHEBOYGAN LKSHOR 1700   79     270/ 13/ 16 1012.9F
KEWAUNEE LKSHORE 1600   78     260/ 13/ 19 1011.2F
ALGOMA MARINA    1612          250/ 12/ 20   N/A
NORTHPORT PIER   1700   80     230/  7/ 19 1009.1F
N MID LAKE BUOY  1650   73 70  220/ 12/ 14 1009.2F         2/ 4
CHAMBERS ISLAND  1600   78     200/  8/ 14 1009.5F
MENOMINEE LKSHOR 1600   78     250/ 17/ 27 1010.9F
$$



USA.gov is the U.S. government's official web portal to all federal, state and local government web resources and services.